Regional Weather Roundup
Issued by NWS

Home | Current Version | Previous Version | Text Only | Print | Product List | Glossary On
Versions: 1 2 3 4 5 6 7 8 9 10 11 12 13 14 15 16 17 18 19 20 21 22 23 24 25 26 27 28 29 30 31 32 33 34 35 36 37 38 39 40 41 42 43 44 45 46 47 48 49 50
000
ASUS43 KBIS 270801
RWRND

NORTH DAKOTA REGIONAL WEATHER ROUNDUP
NATIONAL WEATHER SERVICE BISMARCK ND
300 AM CDT WED MAY 27 2015

NOTE: "FAIR" INDICATES FEW OR NO CLOUDS BELOW 12,000 FEET WITH NO
SIGNIFICANT WEATHER AND/OR OBSTRUCTIONS TO VISIBILITY.


NDZ001>003-009>011-017-270900-
NORTHWEST NORTH DAKOTA

CITY           SKY/WX    TMP DP  RH WIND       PRES   REMARKS
WILLISTON      PTCLDY    56  45  66 CALM      29.90S
MINOT          CLEAR     60  45  57 SW10      29.87S
MINOT AFB      CLEAR     54  52  94 W8        29.86S
$$

NDZ018>021-031>035-040>046-270900-
SOUTHWEST NORTH DAKOTA

CITY           SKY/WX    TMP DP  RH WIND       PRES   REMARKS
BISMARCK       CLEAR     55  50  83 CALM      29.92S
DICKINSON      CLEAR     51  43  74 SW9       29.93S
GARRISON         N/A     56  47  71 S3        29.89S
HETTINGER ARPT CLEAR     49  43  80 CALM      29.97S
$$

NDZ004>008-012>016-024-026-027-054-270900-
NORTHEAST NORTH DAKOTA

CITY           SKY/WX    TMP DP  RH WIND       PRES   REMARKS
GRAND FORKS    PTCLDY    60  47  61 NW8       29.79R
GRND FRKS AFB  PTCLDY    59  47  65 NW9       29.80S
DEVILS LAKE    CLEAR     57  48  72 W7        29.85S
$$

NDZ022-023-025-028>030-036>039-047>053-270900-
SOUTHEAST NORTH DAKOTA

CITY           SKY/WX    TMP DP  RH WIND       PRES   REMARKS
FARGO          CLEAR     55  50  83 W5        29.79S
JAMESTOWN      PTCLDY    59  48  67 W12       29.87R
$$




USA.gov is the U.S. government's official web portal to all federal, state and local government web resources and services.